Location: Hokitika
(42.7170°S, 170.9670°E)
Time: 11:18:17
(UTC+13:00)

Daily predictions for brighter satellites

Satellite Brightness Start Highest point End
(mag) Time Altitude Azimuth Time Altitude Azimuth Time Altitude Azimuth
Cosmos 1605 Rocket 4.0 20:27:18 10° N 20:33:23 70° E 20:39:36 10° SSE
Cosmos 1934 Rocket 4.4 20:29:09 10° NNW 20:35:29 76° W 20:41:48 10° S
Cosmos 1867 4.0 20:30:35 10° SSW 20:35:51 49° SE 20:41:06 10° NE
Envisat 3.0 20:31:03 10° SSE 20:36:14 77° ENE 20:41:21 10° N
Cosmos 1340 Rocket 2.8 20:32:20 10° S 20:36:23 89° W 20:40:22 10° N
Meteor 2-10 Rocket 4.1 20:41:33 10° SSW 20:47:27 75° W 20:53:08 10° N
Cosmos 1503 Rocket 4.4 20:45:33 10° NNW 20:50:51 73° WSW 20:56:17 10° SSE
CZ-2D R/B 3.9 20:47:31 10° SSE 20:51:06 35° E 20:54:38 10° NNE
Cosmos 1939 Rocket 3.5 20:49:24 10° SSE 20:53:00 33° E 20:56:34 10° NNE
YAOGAN 1 2.6 20:50:52 10° SSE 20:55:16 67° ENE 20:59:37 10° N
CZ-4C R/B 3.1 20:50:01 10° NNW 20:57:56 56° ENE 21:04:57 10° SE
Cosmos 1869 4.1 20:58:43 10° S 21:02:30 35° ESE 21:05:39 13° NE
FengYun 1-2 T 4.4 20:57:11 10° SSE 21:02:56 87° WSW 21:08:39 10° NNW
CSL-04 Rocket 3.7 20:58:01 10° SSE 21:03:37 72° ENE 21:09:11 10° N
Cosmos 2082 Rocket 3.9 21:05:23 12° E 21:05:29 13° E 21:07:45 10° ESE
Cosmos 1842 Rocket 4.1 21:01:25 10° SSW 21:05:47 62° W 21:10:06 10° N
GPS 2-04 Rocket1 3.9 21:04:51 10° NW 21:07:34 21° NNE 21:09:00 17° NE
DELTA 2 R/B (1) 3.7 21:02:07 10° WNW 21:07:41 61° N 21:12:30 14° E
Cosmos 2221 2.7 21:05:18 10° S 21:09:43 80° W 21:14:03 10° N
PSLV R/B 4.1 21:08:04 10° W 21:10:23 26° NNW 21:11:38 18° NNE
Lacrosse 4 Rocket 3.9 21:10:18 10° SSE 21:11:56 12° SE 21:13:33 10° ESE
Cosmos 1892 4.0 21:11:35 18° ENE 21:12:52 22° E 21:15:52 10° SE
BREEZE-M DEB (TANK) 3.4 21:15:03 10° SW 21:17:01 21° S 21:19:29 10° ESE
DMSP B5D2-2 4.1 21:13:13 10° NNE 21:18:28 86° WNW 21:23:47 10° SSW
Cosmos 1076 Rocket 3.4 21:14:30 10° N 21:18:47 82° E 21:23:08 10° S
Ariane Rocket 3.2 21:13:50 10° SSE 21:18:49 48° E 21:23:44 10° N
Cosmos 2100 Rocket 4.0 21:12:57 10° N 21:19:04 65° E 21:25:19 10° SSE
USA 229 DEB 3.6 21:12:59 10° SW 21:19:55 86° SE 21:25:18 16° NE
USA 229 3.7 21:13:00 10° SW 21:19:58 85° SE 21:25:21 17° NE
Cosmos 1697 Rocket 4.0 21:16:10 10° S 21:20:49 25° SE 21:23:50 17° E
ATLAS CENTAUR R/B 3.8 21:05:04 10° NW 21:21:23 85° NE 21:27:01 10° SE
BREEZE-M DEB (TANK) 4.2 21:18:07 10° WSW 21:22:03 54° SSE 21:34:08 12° E
NOAA 11 4.2 21:17:10 10° SSE 21:22:45 69° ENE 21:28:14 10° N
COSMOS 2406 3.2 21:17:47 10° N 21:23:21 59° ENE 21:28:59 10° SSE
Okean 3 Rocket 4.0 21:19:48 12° NNE 21:23:34 41° E 21:27:46 10° SSE
Cosmos 2058 2.8 21:20:26 10° N 21:24:34 67° E 21:28:45 10° SSE
CZ-4 R/B 2.9 21:21:17 10° S 21:25:03 39° WSW 21:28:50 10° NW
NOSS 3-1 (A) 3.6 21:19:44 10° SSW 21:26:09 57° SE 21:29:47 22° ENE
MOS 1 Rocket 4.3 21:24:43 21° ENE 21:27:02 32° ESE 21:31:30 10° S
FREGAT/IRIS 3.2 21:24:26 10° SSE 21:27:06 33° E 21:27:07 33° E
Meteor 2-20 Rocket 4.4 21:21:38 10° S 21:27:51 77° E 21:33:58 10° NNE
In-Cosmos 22 Rocket 4.4 21:23:00 10° N 21:28:37 53° E 21:34:21 10° SSE
USA 186 2.7 21:28:47 10° SSE 21:31:54 31° E 21:32:00 30° E
USA 215 3.9 21:26:44 10° ESE 21:32:24 30° NE 21:38:00 10° N
Cosmos 2016 Rocket 4.1 21:29:45 10° NNE 21:35:58 56° E 21:42:12 10° SSE
Cosmos 2151 3.3 21:36:44 24° NNE 21:38:55 46° E 21:43:04 10° SSE
MONITOR-E 3.8 21:37:36 10° SSE 21:40:29 78° ENE 21:41:27 37° N
NOSS 3-1 (C) 3.4 21:34:21 10° SW 21:40:44 78° WNW 21:44:18 23° NNE
SJ-6B 3.6 21:37:38 10° SSE 21:41:26 33° E 21:41:47 32° ENE
CZ-2C R/B 2.6 21:39:24 14° N 21:43:58 82° WNW 21:49:14 10° SSW
ISS -1.9 21:46:42 10° W 21:49:47 31° SSW 21:52:54 10° SE
BREEZE-M R/B 4.3 21:37:29 10° WSW 21:50:12 68° SSE 21:51:48 33° E
IRS-1A Rocket 4.2 21:46:20 10° SSE 21:52:10 79° ENE 21:57:49 10° N
Cosmos 1656 3.7 21:48:16 10° SSW 21:54:00 69° ESE 21:56:36 33° NE
Cosmos 1408 3.8 21:57:07 28° ESE 21:57:07 28° ESE 21:59:26 10° SSE
Cosmos 1356 Rocket 3.5 21:55:00 10° SSW 21:59:11 73° W 22:00:59 32° N
Cosmos 2278 4.3 21:58:56 10° SSW 22:04:20 41° ESE 22:05:57 34° E
SPOT 3 Rocket 3.7 22:01:29 10° SSE 22:06:35 51° E 22:07:46 42° NE
SJ-11-01 4.3 22:05:04 10° SSE 22:09:56 89° WSW 22:13:00 22° NNW
NOSS 2-3 (C) 4.3 22:03:38 10° SW 22:10:37 80° SE 22:12:32 44° NE
Cosmos 2061 Rocket 4.2 22:05:58 10° NNW 22:12:12 75° W 22:18:36 10° S
Cosmos 1980 Rocket 3.1 22:08:27 10° S 22:13:34 34° SE 22:14:45 31° E
Resurs 01 Rocket 3.2 22:11:56 10° SE 22:14:09 22° ESE 22:14:09 22° ESE
Cosmos 1833 Rocket 2.6 22:10:45 10° NNW 22:16:23 75° ENE 22:22:06 10° SSE
Cosmos 1680 Rocket 3.7 22:13:59 10° SSW 22:19:16 56° ESE 22:20:09 49° ENE
Cosmos 1515 Rocket 3.8 22:16:53 10° S 22:21:09 53° ESE 22:21:09 53° ESE
Cosmos 1743 Rocket 4.4 22:22:33 36° ESE 22:22:33 36° ESE 22:25:47 10° SSE
H-2A R/B 1.9 22:17:10 10° SSE 22:22:11 66° ENE 22:23:03 56° NNE
Resurs 1-3 4.4 22:19:17 10° SSE 22:22:30 37° ESE 22:22:30 37° ESE
Tsikada Rocket 3.9 22:18:03 10° S 22:24:20 87° E 22:26:44 41° N
SJ 16-02 3.4 22:27:05 17° SE 22:27:05 17° SE 22:28:21 10° SE
Genesis I 3.7 22:23:08 10° SW 22:26:58 50° WNW 22:27:02 50° WNW
Mayak 0.4 22:30:32 23° SE 22:30:32 23° SE 22:33:08 10° SSE
EO 1 Del DPAF 3.4 22:29:46 71° W 22:29:46 71° W 22:33:32 10° SSW
Meteor 2-3 Rocket 4.2 22:30:36 43° E 22:30:36 43° E 22:35:53 10° SSE
Cosmos 923 Rocket 4.0 22:28:10 10° SSW 22:33:37 86° WNW 22:34:36 61° N
Cosmos 1151 Rocket 3.0 22:29:16 10° S 22:33:39 77° W 22:33:48 75° NW
ATLAS CENTAUR Rocket 4.1 21:58:18 10° WNW 22:36:03 40° NNW 22:38:38 34° NNE
Cosmos 1606 4.0 22:35:46 10° S 22:38:19 34° SSE 22:38:19 34° SSE
Cosmos 1825 3.2 22:44:05 43° S 22:44:05 43° S 22:46:47 10° S
Meteor 1-26 Rocket 4.3 22:39:49 10° S 22:45:15 56° ESE 22:45:15 56° ESE
Thor Agena Rocket 3.7 22:45:27 54° NNW 22:46:20 63° WNW 22:51:26 10° SSW
CZ-4C R/B 4.1 22:39:25 10° WNW 22:46:49 41° SW 22:53:17 10° SSE
Cosmos 2082 Rocket 2.1 22:47:05 49° NNW 22:48:42 88° WSW 22:54:24 10° SSE
Lacrosse 4 Rocket 1.9 22:46:56 10° SSW 22:50:47 60° S 22:50:47 60° S
ARGOS 3.2 22:46:12 10° S 22:51:39 77° WSW 22:52:58 52° NW
Cosmos 1328 Rocket 4.4 22:47:28 10° SSW 22:51:40 43° W 22:52:02 42° WNW
DELTA 2 R/B (1) 3.8 22:48:21 10° W 22:53:16 55° NW 22:53:16 55° NW
Cosmos 1500 Rocket 4.2 22:56:33 50° S 22:56:33 50° S 22:59:52 10° S
Cosmos 2233 Rocket 4.2 22:55:04 38° NNW 22:57:36 70° W 23:03:56 10° S
Cosmos 2228 Rocket 3.6 22:53:25 10° S 22:57:11 59° S 22:57:11 59° S
Lacrosse 5 rocket 4.3 23:04:11 10° SE 23:04:11 10° SE 23:04:12 10° SE
Cosmos 1697 Rocket 3.0 22:59:34 10° SSW 23:05:07 55° WNW 23:05:35 54° NW
Cosmos 2360 4.1 23:01:25 10° SSW 23:07:11 80° WNW 23:07:12 80° WNW
SL-8 R/B 4.3 23:03:07 10° WSW 23:07:30 56° S 23:07:30 56° S
USA 215 3.3 23:09:09 10° SE 23:15:47 80° SW 23:22:22 10° WNW
SL-16 R/B 3.3 23:11:13 10° S 23:16:05 34° SE 23:16:05 34° SE
Cosmos 1898 Rocket 3.8 23:17:36 67° WSW 23:17:36 67° WSW 23:22:55 10° SSE
CZ-2C R/B 3.5 23:13:54 10° S 23:19:09 60° WSW 23:19:45 56° WNW
Cosmos 2034 Rocket 4.4 23:25:24 51° ESE 23:25:24 51° ESE 23:30:43 10° SSE
ISS -0.6 23:24:49 10° SW 23:26:03 15° SSW 23:26:03 15° SSW
Spot 2 Rocket 4.4 23:25:25 10° SSE 23:28:53 44° SSE 23:28:53 44° SSE
Cosmos 2322 Rocket 3.1 23:39:01 10° SSW 23:43:34 43° SSE 23:43:34 43° SSE
USA 267 3.3 23:49:25 74° SE 23:49:30 74° SE 23:56:06 10° SW
Cosmos 2360 Rocket 3.7 23:46:53 10° S 23:51:06 28° SE 23:51:06 28° SE
Resurs 01 Rocket 3.5 23:48:22 10° S 23:51:43 28° SW 23:51:43 28° SW
